Terminal Aerodrome Forecast
Issued by NWS Cleveland, OH

Home | Current Version | Previous Version | Graphics & Text | Print | Product List | Glossary On
Versions: 1 2 3 4 5 6 7 8 9 10 11 12 13 14 15 16 17 18 19 20 21 22 23 24 25 26 27 28 29 30
377
FTUS41 KCLE 090148 AAB
TAFCLE
TAF AMD
KCLE 090148Z 0902/1006 21006KT 3SM -SN BR OVC025
      TEMPO 0902/0904 3/4SM -SN BR OVC006
     FM090600 23006KT 6SM -SHSN BR OVC015
     FM090900 26008KT 5SM -SN OVC008
      TEMPO 0909/0913 2SM -SN
     FM091600 28012KT 5SM -SHSN OVC012
     FM092000 27014KT P6SM BKN025=

USA.gov is the U.S. government's official web portal to all federal, state and local government web resources and services.